Location: Arcizac
(43.0933°N, 0.0112°E)
Time: 14:36:22
(UTC+00:00)

Gbstr 26 Del rocket - Pass Details

Date: 14 December 2019
Orbit: 494 x 1263 km, 51.8° (Epoch: 19 January)

Event Time Altitude Azimuth Distance (km) Brightness Sun altitude
Rises 18:38:09 0° 227° (SW) 4,019 8.1 -23.3°
Reaches altitude 10° 18:41:07 10° 226° (SW) 2,969 7.3 -23.9°
Maximum altitude 18:48:14 74° 143° (SE) 1,001 3.9 -25.1°
Enters shadow 18:49:16 61° 85° (E) 1,057 3.8 -25.3°
